Weather History for Lima, OH

Change the Weather History Date:

Friday, April 25, 2014

  Actual Average (KFDY) Record (KFDY)
Temperature  
Mean Temperature 53 °F -  
Max Temperature 60 °F 61 °F 86 °F (1960)
Min Temperature 46 °F 39 °F 25 °F (1967)
Degree Days  
Heating Degree Days 12    
Growing Degree Days 3 (Base 50)    
Moisture  
Dew Point 42 °F    
Average Humidity 72    
Maximum Humidity 93    
Minimum Humidity 33    
Precipitation  
Precipitation 0.42 in - - ()
Sea Level Pressure  
Sea Level Pressure 29.72 in    
Wind  
Wind Speed 12 mph (SW)    
Max Wind Speed 25 mph    
Max Gust Speed 32 mph    
Visibility 8 miles    
Events Rain    
Averages and records for this station are not official NWS values.
T = Trace of Precipitation, MM = Missing Value Source: NWS Daily Summary

Daily Weather History Graph

Daily Weather History Graph

Search for Another Location

Airport:

Trip Planner

Search our weather history database for the weather conditions in past years. The results will help you decide how hot, cold, wet, or windy it might be!

Date:

Astronomy

Apr. 25, 2014 Rise Set
Actual Time 6:42 AM EDT 8:26 PM EDT
Civil Twilight 6:13 AM EDT 8:55 PM EDT
Nautical Twilight 5:38 AM EDT 9:30 PM EDT
Astronomical Twilight 5:00 AM EDT 10:08 PM EDT
Moon 4:31 AM EDT (4/25) 4:46 PM EDT (4/25)
Length of Visible Light 14h 41m
Length of Day
13h 43m
Waning Crescent, 15% of the Moon is Illuminated
Apr 25
Waning Crescent
Apr 29
New
May 6
First Quarter
May 14
Full
May 21
Last Quarter

Hourly Weather History & Observations

Time (EDT) Temp. Dew Point Humidity Pressure Visibility Wind Dir Wind Speed Gust Speed Precip Events Conditions
12:53 AM 53.1 °F 28.0 °F 38% 29.78 in 10.0 mi SE 13.8 mph - N/A   Clear
1:53 AM 53.1 °F 27.0 °F 37% 29.75 in 10.0 mi SE 12.7 mph - N/A   Clear
2:53 AM 54.0 °F 26.1 °F 34% 29.71 in 10.0 mi SE 11.5 mph - N/A   Clear
3:53 AM 54.0 °F 26.1 °F 34% 29.67 in 10.0 mi SE 11.5 mph - N/A   Clear
4:53 AM 55.0 °F 26.1 °F 33% 29.66 in 10.0 mi SE 9.2 mph - N/A   Scattered Clouds
5:53 AM 51.1 °F 39.9 °F 66% 29.65 in 10.0 mi SE 10.4 mph - 0.03 in   Overcast
6:44 AM 46.9 °F 42.1 °F 83% 29.66 in 2.0 mi South 10.4 mph - 0.21 in Rain Rain
6:53 AM 48.0 °F 43.0 °F 83% 29.66 in 7.0 mi South 8.1 mph - 0.22 in Rain Light Rain
7:24 AM 48.0 °F 43.0 °F 83% 29.64 in 6.0 mi SSE 11.5 mph - 0.04 in Rain Light Rain
7:53 AM 48.0 °F 42.1 °F 80% 29.65 in 9.0 mi SSE 13.8 mph - 0.05 in Rain Light Rain
8:53 AM 48.9 °F 45.0 °F 86% 29.64 in 10.0 mi South 8.1 mph - 0.03 in Rain Light Rain
9:34 AM 52.0 °F 48.9 °F 89% 29.64 in 8.0 mi SSW 6.9 mph - 0.00 in Rain Light Rain
9:53 AM 52.0 °F 50.0 °F 93% 29.64 in 5.0 mi SSW 5.8 mph - 0.01 in Rain Light Rain
10:11 AM 53.1 °F 51.1 °F 93% 29.64 in 2.0 mi SW 8.1 mph - 0.03 in Rain Light Rain
10:21 AM 53.1 °F 51.1 °F 93% 29.64 in 2.5 mi SW 9.2 mph - 0.04 in Rain Light Rain
10:36 AM 54.0 °F 52.0 °F 93% 29.64 in 4.0 mi SSW 9.2 mph - 0.05 in Rain Light Rain
10:53 AM 54.0 °F 52.0 °F 93% 29.65 in 4.0 mi SW 11.5 mph - 0.06 in Rain Light Rain
11:53 AM 51.1 °F 48.9 °F 92% 29.68 in 3.0 mi West 15.0 mph - 0.02 in Rain Light Rain
12:45 PM 50.0 °F 48.0 °F 93% 29.68 in 7.0 mi NW 16.1 mph - 0.00 in   Overcast
12:53 PM 51.1 °F 48.0 °F 89% 29.68 in 7.0 mi NNW 10.4 mph - 0.00 in   Overcast
1:53 PM 51.1 °F 46.9 °F 86% 29.72 in 7.0 mi NW 18.4 mph - N/A   Overcast
2:05 PM 51.1 °F 46.9 °F 86% 29.72 in 6.0 mi NW 19.6 mph 25.3 mph N/A   Overcast
2:53 PM 51.1 °F 46.9 °F 86% 29.75 in 5.0 mi WNW 17.3 mph - N/A   Overcast
3:46 PM 54.0 °F 46.9 °F 77% 29.78 in 6.0 mi WNW 20.7 mph 28.8 mph N/A   Haze
3:53 PM 54.0 °F 48.0 °F 80% 29.78 in 7.0 mi WNW 19.6 mph 28.8 mph N/A   Mostly Cloudy
4:37 PM 57.0 °F 46.9 °F 69% 29.79 in 10.0 mi WNW 19.6 mph 26.5 mph N/A   Scattered Clouds
4:53 PM 57.9 °F 45.0 °F 62% 29.79 in 10.0 mi WNW 24.2 mph 32.2 mph N/A   Clear
5:53 PM 60.1 °F 42.1 °F 51% 29.81 in 10.0 mi WNW 17.3 mph 27.6 mph N/A   Clear
6:53 PM 59.0 °F 39.0 °F 48% 29.83 in 10.0 mi WNW 25.3 mph 28.8 mph N/A   Clear
7:53 PM 57.9 °F 37.9 °F 47% 29.84 in 10.0 mi WNW 13.8 mph - N/A   Clear
8:53 PM 53.1 °F 37.9 °F 57% 29.86 in 10.0 mi West 6.9 mph - N/A   Clear
9:53 PM 50.0 °F 39.0 °F 66% 29.86 in 10.0 mi South 5.8 mph - N/A   Clear
10:53 PM 48.9 °F 39.9 °F 71% 29.87 in 10.0 mi South 5.8 mph - N/A   Scattered Clouds
11:53 PM 50.0 °F 39.9 °F 68% 29.87 in 10.0 mi South 5.8 mph - N/A   Overcast